KF4PPJ Weather Reports


Display with metric or nautical units.
time (UTC)temp
F
wind
direction
speed
MPH
gust
MPH
rain 1hr
in
rain 24hr
in
rain mn
in
humidity
%
barometer
mb
20260903135618 53 149 0.0 0.0 0.00 0.07 0.07 96 1011.8
20260903135118 53 179 0.0 0.0 0.00 0.07 0.07 96 1011.5
20260903134617 53 161 0.0 0.0 0.00 0.07 0.07 95 1011.7
20260903134113 53 147 0.0 0.0 0.00 0.07 0.07 95 1011.4
20260903133610 53 175 1.0 1.0 0.00 0.07 0.07 95 1011.5
20260903133107 53 150 0.0 1.0 0.00 0.07 0.07 95 1011.6
20260903132601 53 146 1.0 1.0 0.00 0.07 0.07 95 1011.6
20260903132056 53 150 0.0 0.0 0.00 0.07 0.07 95 1011.3
20260903131556 53 159 0.0 0.0 0.07 0.07 0.07 95 1011.4
20260903131049 53 143 1.0 1.0 0.07 0.07 0.07 95 1011.4
20260903130543 53 152 0.0 0.0 0.00 0.06 0.06 95 1011.5
20260903130038 53 157 0.0 0.0 0.05 0.06 0.06 95 1011.3
20260903125537 53 142 0.0 1.0 0.00 0.05 0.05 94 1011.3
20260903125032 53 154 0.0 0.0 0.07 0.05 0.05 94 1011.5
20260903124532 53 155 0.0 1.0 0.07 0.05 0.05 94 1011.4
20260903124027 53 136 1.0 1.0 0.00 0.04 0.04 94 1011.4
20260903123526 53 153 0.0 0.0 0.00 0.04 0.04 94 1011.4
20260903123025 53 154 0.0 0.0 0.00 0.04 0.04 93 1011.2
20260903122519 53 148 0.0 0.0 0.05 0.04 0.04 93 1011.4
20260903122019 53 148 0.0 0.0 0.05 0.04 0.04 92 1011.4
20260903121514 53 146 0.0 1.0 0.07 0.03 0.03 92 1011.2
20260903121010 53 136 1.0 1.0 0.12 0.03 0.03 91 1011.2
20260903120509 53 125 0.0 1.0 0.12 0.02 0.02 91 1011.3
20260903120009 53 144 0.0 1.0 0.07 0.01 0.01 91 1011.2
20260903115508 53 191 2.0 2.0 0.00 0.00 0.00 90 1011.1
20260903115007 53 141 1.0 1.0 0.00 0.00 0.00 90 1011.1
20260903114457 53 175 2.0 2.0 0.00 0.00 0.00 90 1010.7
20260903113953 54 157 1.0 1.0 0.00 0.00 0.00 89 1011.0
20260903113449 54 140 1.0 2.0 0.00 0.00 0.00 89 1010.8
20260903112944 54 150 0.0 2.0 0.00 0.00 0.00 89 1010.8
20260903112440 54 136 0.0 0.0 0.00 0.00 0.00 90 1010.8
20260903111939 54 149 0.0 2.0 0.00 0.00 0.00 90 1010.7
20260903111439 53 144 0.0 1.0 0.00 0.00 0.00 92 1010.7
20260903110935 53 159 0.0 1.0 0.00 0.00 0.00 92 1010.7
20260903110430 53 159 1.0 1.0 0.00 0.00 0.00 93 1010.8
20260903105926 53 149 0.0 1.0 0.00 0.00 0.00 93 1010.7
20260903105421 53 156 0.0 0.0 0.00 0.00 0.00 92 1010.8
20260903104920 53 145 0.0 0.0 0.00 0.00 0.00 93 1010.7
20260903104420 53 144 1.0 1.0 0.00 0.00 0.00 93 1010.5
20260903103917 53 158 0.0 0.0 0.00 0.00 0.00 93 1010.8
20260903103413 53 146 0.0 0.0 0.00 0.00 0.00 93 1010.8
20260903102908 53 142 0.0 0.0 0.00 0.00 0.00 93 1011.1
20260903102402 53 154 0.0 0.0 0.00 0.00 0.00 93 1010.6
20260903101857 53 116 0.0 0.0 0.00 0.00 0.00 93 1010.8
20260903101357 53 145 0.0 0.0 0.00 0.00 0.00 93 1010.9
20260903100852 53 158 0.0 0.0 0.00 0.00 0.00 93 1010.6
20260903100347 53 163 0.0 0.0 0.00 0.00 0.00 94 1010.8
20260903095838 54 185 0.0 0.0 0.00 0.00 0.00 93 1010.8
20260903095338 53 153 0.0 0.0 0.00 0.00 0.00 94 1010.8
20260903094834 53 156 0.0 0.0 0.00 0.00 0.00 94 1010.5
20260903094328 53 149 0.0 0.0 0.00 0.00 0.00 94 1010.7
20260903093824 54 158 0.0 0.0 0.00 0.00 0.00 93 1010.9
20260903093319 54 144 0.0 0.0 0.00 0.00 0.00 93 1010.8
20260903092814 54 146 0.0 0.0 0.00 0.00 0.00 93 1010.7
20260903092309 54 152 0.0 0.0 0.00 0.00 0.00 93 1010.9
20260903091807 54 154 0.0 0.0 0.00 0.00 0.00 92 1010.8
20260903091302 54 150 0.0 0.0 0.00 0.00 0.00 92 1010.6
20260903090758 54 135 0.0 0.0 0.00 0.00 0.00 92 1010.6
20260903090257 54 166 0.0 0.0 0.00 0.00 0.00 92 1010.7
20260903085755 54 168 0.0 0.0 0.00 0.00 0.00 93 1010.7
20260903085249 54 115 1.0 2.0 0.00 0.00 0.00 93 1010.7
20260903084748 54 151 0.0 0.0 0.00 0.00 0.00 93 1010.6
20260903084237 54 194 1.0 2.0 0.00 0.00 0.00 94 1010.7
20260903083733 54 171 0.0 0.0 0.00 0.00 0.00 94 1010.5
20260903083227 54 165 0.0 0.0 0.00 0.00 0.00 94 1010.6
20260903082726 54 181 0.0 0.0 0.00 0.00 0.00 94 1010.7
20260903082222 54 162 0.0 2.0 0.00 0.00 0.00 95 1010.6
20260903081722 54 157 0.0 0.0 0.00 0.00 0.00 95 1010.5
20260903081218 54 141 0.0 0.0 0.00 0.00 0.00 95 1010.4
20260903080714 54 141 0.0 0.0 0.00 0.00 0.00 95 1010.4
20260903080212 54 111 1.0 1.0 0.00 0.00 0.00 95 1010.6
20260903075710 54 148 1.0 1.0 0.00 0.00 0.00 95 1010.6
20260903075206 54 173 0.0 3.0 0.00 0.00 0.00 96 1010.6
20260903074704 54 151 0.0 0.0 0.00 0.00 0.00 96 1010.5
20260903074200 53 145 0.0 0.0 0.00 0.00 0.00 96 1010.6
20260903073655 53 147 1.0 1.0 0.00 0.00 0.00 96 1010.6
20260903073151 53 133 1.0 1.0 0.00 0.00 0.00 95 1010.3
20260903072646 53 144 0.0 1.0 0.00 0.00 0.00 96 1010.5
20260903072143 53 170 1.0 1.0 0.00 0.00 0.00 95 1010.5
20260903071639 53 158 1.0 1.0 0.00 0.00 0.00 95 1010.4
20260903071134 53 125 1.0 2.0 0.00 0.00 0.00 95 1010.3
20260903070633 53 136 1.0 1.0 0.00 0.00 0.00 95 1010.2
20260903070129 53 135 1.0 1.0 0.00 0.00 0.00 95 1010.3
20260903065629 53 142 1.0 1.0 0.00 0.19 0.19 95 1010.3
20260903065124 53 126 1.0 2.0 0.00 0.19 0.19 95 1010.4
20260903064618 53 161 1.0 1.0 0.00 0.19 0.19 95 1010.3
20260903064114 53 154 0.0 0.0 0.00 0.19 0.19 95 1010.3
20260903063609 53 147 0.0 0.0 0.00 0.19 0.19 95 1010.3
20260903063104 53 118 0.0 0.0 0.00 0.19 0.19 95 1010.2
20260903062559 53 143 0.0 0.0 0.00 0.19 0.19 95 1010.3
20260903062054 53 153 0.0 0.0 0.00 0.19 0.19 95 1010.3
20260903061549 53 144 1.0 2.0 0.00 0.19 0.19 95 1010.4
20260903061049 53 118 0.0 0.0 0.00 0.19 0.19 95 1010.3
20260903060549 53 144 0.0 1.0 0.00 0.19 0.19 95 1010.2
20260903060044 53 157 1.0 1.0 0.00 0.19 0.19 96 1010.5
20260903055542 53 158 0.0 0.0 0.00 0.19 0.19 95 1010.4
20260903055041 53 157 0.0 0.0 0.00 0.19 0.19 95 1010.4
20260903054536 53 157 0.0 0.0 0.00 0.19 0.19 95 1010.5
20260903054032 53 162 0.0 1.0 0.00 0.19 0.19 95 1010.4
20260903053532 54 140 1.0 2.0 0.00 0.19 0.19 95 1010.4
20260903053028 54 135 2.0 2.0 0.00 0.19 0.19 95 1010.4
20260903052524 54 147 0.0 2.0 0.00 0.19 0.19 95 1010.5
20260903052019 54 149 1.0 2.0 0.00 0.19 0.19 95 1010.3
20260903051514 54 109 3.0 3.0 0.00 0.19 0.19 95 1010.3
20260903051010 54 141 2.0 3.0 0.00 0.19 0.19 95 1010.4
20260903050509 54 155 0.0 1.0 0.00 0.19 0.19 95 1010.4
20260903050005 54 146 0.0 0.0 0.00 0.19 0.19 94 1010.5
20260903045459 54 139 2.0 2.0 0.00 0.19 0.19 94 1010.2
20260903044955 54 127 1.0 3.0 0.00 0.19 0.19 94 1010.4
20260903044451 55 135 1.0 2.0 0.00 0.19 0.19 94 1010.3
20260903043947 55 132 2.0 2.0 0.00 0.19 0.19 94 1010.3
20260903043443 55 136 2.0 2.0 0.00 0.19 0.19 93 1010.3
20260903042941 55 143 0.0 1.0 0.00 0.19 0.19 93 1010.2
20260903042436 55 136 2.0 2.0 0.00 0.19 0.19 92 1010.2
20260903041932 55 139 3.0 3.0 0.00 0.19 0.19 92 1010.0
20260903041428 56 133 2.0 3.0 0.00 0.19 0.19 91 1010.2
20260903040924 56 131 2.0 3.0 0.00 0.19 0.19 90 1010.0
20260903040423 57 156 1.0 2.0 0.00 0.19 0.19 88 1009.9
20260903035919 57 157 0.0 0.0 0.00 0.19 0.19 87 1010.0
20260903035415 58 153 0.0 0.0 0.00 0.19 0.19 86 1009.8
20260903034914 58 167 0.0 1.0 0.00 0.19 0.19 86 1009.9
20260903034409 58 150 0.0 0.0 0.00 0.19 0.19 85 1009.7
20260903033905 58 135 1.0 3.0 0.00 0.19 0.19 85 1009.7
20260903033359 58 161 0.0 1.0 0.00 0.19 0.19 87 1009.6
20260903032854 57 137 0.0 2.0 0.00 0.19 0.19 89 1009.4
20260903032350 57 180 2.0 2.0 0.00 0.19 0.19 92 1009.4
20260903031845 57 100 1.0 2.0 0.00 0.19 0.19 94 1009.6
20260903031344 56 83 2.0 10.0 0.00 0.19 0.19 94 1009.5
20260903030840 56 162 0.0 1.0 0.00 0.19 0.19 94 1009.3
20260903030336 56 156 0.0 1.0 0.00 0.19 0.19 94 1009.2
20260903025832 56 149 0.0 1.0 0.00 0.19 0.19 93 1009.3
20260903025327 56 163 0.0 0.0 0.00 0.19 0.19 93 1009.1
20260903024827 56 149 0.0 1.0 0.00 0.19 0.19 93 1009.2
20260903024326 56 145 0.0 0.0 0.00 0.19 0.19 92 1009.2
20260903023822 56 157 0.0 1.0 0.00 0.19 0.19 92 1008.9
20260903023317 56 153 0.0 1.0 0.00 0.19 0.19 91 1008.9
20260903022812 57 117 1.0 2.0 0.00 0.19 0.19 90 1008.9
20260903022310 57 110 2.0 3.0 0.00 0.19 0.19 89 1008.9
20260903021804 58 125 1.0 2.0 0.00 0.19 0.19 88 1008.8
20260903021301 59 155 0.0 1.0 0.00 0.19 0.19 87 1008.6
20260903020801 59 131 1.0 1.0 0.00 0.19 0.19 84 1008.6
20260903020255 59 175 0.0 1.0 0.00 0.19 0.19 83 1008.5
20260903015751 59 181 1.0 3.0 0.00 0.19 0.19 82 1008.6
20260903015246 60 187 2.0 3.0 0.00 0.19 0.19 81 1008.5
20260903014741 60 197 5.0 9.0 0.00 0.19 0.19 81 1008.6
20260903014240 60 197 2.0 5.0 0.00 0.19 0.19 82 1008.6
20260903013736 61 166 3.0 3.0 0.00 0.19 0.19 82 1008.5
20260903013235 60 174 2.0 2.0 0.00 0.19 0.19 83 1008.4
20260903012734 61 206 2.0 7.0 0.00 0.19 0.19 84 1008.4
20260903012234 60 169 2.0 6.0 0.00 0.19 0.19 86 1008.2
20260903011728 60 222 5.0 9.0 0.00 0.19 0.19 86 1008.3
20260903011222 60 187 4.0 15.0 0.00 0.19 0.19 85 1008.5
20260903010718 60 211 8.0 10.0 0.00 0.19 0.19 88 1008.4
20260903010217 60 185 2.0 7.0 0.00 0.19 0.19 88 1007.9
20260903005717 60 175 4.0 7.0 0.00 0.19 0.19 89 1007.9
20260903005212 60 205 4.0 6.0 0.00 0.19 0.19 90 1007.9
20260903004708 60 164 2.0 7.0 0.00 0.19 0.19 92 1007.9
20260903004203 60 189 5.0 7.0 0.00 0.19 0.19 93 1007.6
20260903003658 60 164 4.0 6.0 0.00 0.19 0.19 94 1007.7
20260903003152 60 149 1.0 6.0 0.07 0.19 0.19 94 1007.8
20260903002648 59 188 1.0 2.0 0.05 0.18 0.18 94 1007.7
20260903002142 59 143 2.0 2.0 0.24 0.18 0.18 94 1007.8
20260903001637 60 187 3.0 3.0 0.12 0.16 0.16 93 1007.8
20260903001136 60 169 3.0 3.0 0.00 0.14 0.14 94 1007.9
20260903000632 60 180 0.0 1.0 0.00 0.14 0.14 94 1007.4
20260903000126 60 159 1.0 1.0 0.00 0.14 0.14 93 1007.4
20260902235625 60 164 0.0 0.0 0.00 0.14 0.14 94 1007.2
20260902235120 60 183 0.0 0.0 0.00 0.14 0.14 93 1007.4
20260902234614 60 143 0.0 0.0 0.00 0.14 0.14 94 1007.3
20260902234112 60 179 0.0 0.0 0.00 0.14 0.14 94 1007.3
20260902233608 60 142 0.0 0.0 0.00 0.14 0.14 94 1007.2
20260902233103 60 195 0.0 0.0 0.00 0.14 0.14 94 1007.1
20260902232601 59 164 0.0 0.0 0.00 0.14 0.14 94 1007.0
20260902232055 59 153 0.0 0.0 0.00 0.14 0.14 94 1007.1
20260902231550 59 118 1.0 2.0 0.00 0.14 0.14 94 1007.1
20260902231044 59 175 1.0 2.0 0.05 0.14 0.14 94 1007.2
20260902230539 59 155 0.0 0.0 0.00 0.13 0.13 93 1007.3
20260902230038 59 158 1.0 1.0 0.07 0.13 0.13 93 1007.4
20260902225533 59 126 1.0 1.0 0.12 0.13 0.13 93 1007.4
20260902225032 59 153 0.0 1.0 0.12 0.12 0.12 93 1007.5
20260902224531 59 163 0.0 0.0 0.07 0.11 0.11 93 1007.5
20260902224027 59 147 0.0 0.0 0.05 0.10 0.10 92 1007.4
20260902223523 59 149 0.0 0.0 0.00 0.09 0.09 92 1007.6
20260902223022 59 152 0.0 0.0 0.07 0.09 0.09 92 1007.5
20260902222521 59 143 0.0 1.0 0.00 0.08 0.08 91 1007.3
20260902222020 59 175 0.0 0.0 0.07 0.08 0.08 91 1007.6
20260902221515 60 153 0.0 0.0 0.07 0.08 0.08 91 1007.5
20260902221011 59 153 0.0 0.0 0.05 0.07 0.07 91 1007.3
20260902220506 59 133 1.0 1.0 0.05 0.07 0.07 90 1007.5
20260902220000 59 175 1.0 1.0 0.00 0.06 0.06 90 1007.5
20260902215456 59 163 0.0 2.0 0.07 0.06 0.06 88 1007.7
20260902214951 60 163 1.0 1.0 0.07 0.06 0.06 88 1007.5
20260902214451 60 156 1.0 1.0 0.05 0.05 0.05 87 1007.5
20260902213950 60 158 1.0 1.0 0.05 0.05 0.05 87 1007.5
20260902213447 60 193 2.0 3.0 0.07 0.04 0.04 85 1007.6
20260902212944 60 148 1.0 2.0 0.00 0.03 0.03 84 1007.6
20260902212441 60 193 1.0 2.0 0.00 0.03 0.03 84 1007.7
20260902211932 60 230 2.0 3.0 0.05 0.03 0.03 83 1007.7
20260902211427 60 171 1.0 3.0 0.05 0.03 0.03 82 1007.6
20260902210917 61 164 2.0 3.0 0.00 0.02 0.02 82 1007.6
20260902210417 61 152 3.0 3.0 0.00 0.02 0.02 81 1007.9
20260902205915 61 202 3.0 5.0 0.07 0.02 0.02 81 1007.5
20260902205409 62 178 0.0 1.0 0.07 0.02 0.02 80 1007.5
20260902204905 62 197 4.0 7.0 0.00 0.01 0.01 77 1007.6
20260902204404 63 168 5.0 6.0 0.00 0.01 0.01 76 1007.7
20260902203900 63 185 5.0 6.0 0.00 0.01 0.01 74 1007.6
20260902203356 64 173 3.0 5.0 0.00 0.01 0.01 72 1007.6
20260902202850 64 188 5.0 8.0 0.00 0.01 0.01 72 1007.5
20260902202345 65 188 5.0 7.0 0.00 0.01 0.01 71 1007.4
20260902201842 65 178 3.0 8.0 0.00 0.01 0.01 71 1007.6
20260902201336 65 198 4.0 6.0 0.00 0.01 0.01 73 1007.7
20260902200831 65 191 2.0 6.0 0.00 0.01 0.01 72 1007.4
20260902200326 64 196 3.0 3.0 0.00 0.01 0.01 74 1007.6
20260902195822 64 224 5.0 9.0 0.00 0.01 0.01 74 1007.5
20260902195321 64 178 2.0 3.0 0.00 0.01 0.01 75 1007.7
20260902194815 64 157 2.0 5.0 0.00 0.01 0.01 77 1007.7
20260902194310 63 165 1.0 3.0 0.00 0.01 0.01 78 1007.8
20260902193806 62 180 4.0 6.0 0.00 0.01 0.01 78 1007.9
20260902193301 62 193 1.0 8.0 0.00 0.01 0.01 81 1008.0
20260902192800 62 133 1.0 3.0 0.05 0.01 0.01 81 1008.0
20260902192259 62 206 1.0 3.0 0.05 0.01 0.01 80 1008.1
20260902191758 63 133 6.0 8.0 0.00 0.00 0.00 77 1007.8
20260902191254 64 247 9.0 20.0 0.00 0.00 0.00 72 1008.0
20260902190749 66 246 7.0 13.0 0.00 0.00 0.00 69 1008.1
20260902190249 69 208 5.0 14.0 0.00 0.00 0.00 63 1008.3
20260902185744 69 143 2.0 5.0 0.00 0.00 0.00 56 1007.7
20260902185240 69 205 3.0 7.0 0.00 0.00 0.00 57 1007.7
20260902184736 69 167 5.0 7.0 0.00 0.00 0.00 57 1007.7
20260902184231 69 259 7.0 10.0 0.00 0.00 0.00 56 1007.9
20260902183727 70 211 4.0 5.0 0.00 0.00 0.00 58 1007.8
20260902183223 71 221 5.0 7.0 0.00 0.00 0.00 58 1008.0
20260902182719 70 163 1.0 1.0 0.00 0.00 0.00 61 1007.9
20260902182216 68 126 1.0 2.0 0.00 0.00 0.00 65 1007.8
20260902181712 67 70 2.0 5.0 0.00 0.00 0.00 65 1008.1
20260902181211 67 128 2.0 2.0 0.00 0.00 0.00 66 1008.0
20260902180711 66 149 1.0 3.0 0.00 0.00 0.00 68 1008.3
20260902180207 66 132 1.0 1.0 0.00 0.00 0.00 74 1008.1
20260902175702 65 153 0.0 1.0 0.00 0.00 0.00 75 1008.3
20260902175158 64 150 0.0 1.0 0.00 0.00 0.00 74 1008.3
20260902174654 64 152 0.0 1.0 0.00 0.00 0.00 78 1008.4
20260902174149 64 148 0.0 1.0 0.00 0.00 0.00 78 1008.5
20260902173644 64 119 1.0 2.0 0.00 0.00 0.00 75 1008.4
20260902173139 64 137 1.0 1.0 0.00 0.00 0.00 76 1008.6
20260902172638 64 139 0.0 1.0 0.00 0.00 0.00 76 1008.6
20260902172138 64 138 1.0 1.0 0.00 0.00 0.00 76 1008.5
20260902171633 64 160 0.0 1.0 0.00 0.00 0.00 78 1008.5
20260902171129 64 134 0.0 1.0 0.00 0.00 0.00 77 1008.9
20260902170626 64 144 0.0 1.0 0.00 0.00 0.00 78 1008.6
20260902170121 64 148 0.0 0.0 0.00 0.00 0.00 77 1008.8
20260902165620 63 152 0.0 0.0 0.00 0.00 0.00 78 1009.0
20260902165114 63 152 0.0 0.0 0.00 0.00 0.00 79 1008.8
20260902164609 63 152 0.0 0.0 0.00 0.00 0.00 78 1008.9
20260902164108 63 152 0.0 0.0 0.00 0.00 0.00 77 1008.9
20260902163604 63 155 0.0 1.0 0.00 0.00 0.00 76 1009.1
20260902163102 64 156 0.0 1.0 0.00 0.00 0.00 76 1009.0
20260902162602 63 162 1.0 2.0 0.00 0.00 0.00 73 1009.2
20260902162057 64 203 1.0 2.0 0.00 0.00 0.00 73 1009.1
20260902161552 64 162 0.0 1.0 0.00 0.00 0.00 74 1009.1
20260902161048 64 173 1.0 2.0 0.00 0.00 0.00 73 1009.4
20260902160543 64 169 2.0 5.0 0.00 0.00 0.00 73 1009.3
20260902160039 64 158 1.0 1.0 0.00 0.00 0.00 77 1009.3
20260902155532 64 153 1.0 3.0 0.00 0.00 0.00 76 1009.3
20260902155031 63 149 0.0 1.0 0.00 0.00 0.00 77 1009.5
20260902154526 63 124 1.0 1.0 0.00 0.00 0.00 78 1009.5
20260902154021 64 112 2.0 5.0 0.00 0.00 0.00 77 1009.4
20260902153519 64 146 1.0 3.0 0.00 0.00 0.00 81 1009.5
20260902153015 62 155 0.0 3.0 0.00 0.00 0.00 84 1009.8
20260902152512 62 118 1.0 3.0 0.00 0.00 0.00 88 1009.6
20260902152007 61 117 2.0 3.0 0.00 0.00 0.00 93 1009.7
20260902151503 60 164 0.0 3.0 0.00 0.00 0.00 94 1009.7
20260902151002 59 156 0.0 0.0 0.00 0.00 0.00 95 1009.8
20260902150458 59 135 0.0 0.0 0.00 0.00 0.00 96 1009.8
20260902145958 58 156 0.0 0.0 0.00 0.00 0.00 96 1009.9
20260902145453 58 156 0.0 0.0 0.00 0.00 0.00 96 1010.0
20260902144947 57 153 0.0 0.0 0.00 0.00 0.00 97 1010.2
20260902144444 57 145 0.0 0.0 0.00 0.00 0.00 97 1010.3
20260902143943 56 136 0.0 0.0 0.00 0.00 0.00 97 1010.2
20260902143439 56 156 0.0 0.0 0.00 0.00 0.00 97 1010.4
20260902142934 56 132 0.0 0.0 0.00 0.00 0.00 97 1010.3
20260902142430 56 127 0.0 0.0 0.00 0.00 0.00 96 1010.5
20260902141925 56 148 0.0 0.0 0.00 0.00 0.00 97 1010.4
20260902141420 56 140 0.0 0.0 0.00 0.00 0.00 97 1010.4
20260902140920 55 149 0.0 0.0 0.00 0.00 0.00 96 1010.6
20260902140416 55 149 0.0 0.0 0.00 0.00 0.00 96 1010.6
20260902135915 55 156 0.0 0.0 0.00 0.00 0.00 96 1010.5